Location: Quebec
(46.8000°N, 71.2500°W)
Time: 14:34:55
(UTC-05:00)

Envisat - Pass Details

Date: 16 October 2017
Orbit: 764 x 766 km, 98.2° (Epoch: 17 December)

Event Time Altitude Azimuth Distance (km) Brightness Sun altitude
Exits shadow 20:46:18 63° 270° (W) 859 3.3 -29.7°
Drops below altitude 10° 20:51:12 10° 340° (NNW) 2,316 5.9 -30.4°
Sets 20:53:33 0° 344° (NNW) 3,247 6.7 -30.8°
